Terminal Aerodrome Forecast
Issued by NWS

Home | Current Version | Previous Version | Text Only | Print | Product List | Glossary On
Versions: 1 2 3 4 5 6 7 8 9 10 11 12 13 14 15 16 17 18 19 20 21 22 23 24 25 26 27 28 29
000
FTUS42 KCAE 202300
TAFDNL
TAF
KDNL 202340Z 2100/2124 03006KT P6SM OVC007
      TEMPO 2100/2102 5SM BR OVC004
     FM210600 VRB03KT 2SM BR OVC004
     FM211300 VRB03KT 5SM BR OVC008
     FM211600 05005KT P6SM VCSH BKN015=

USA.gov is the U.S. government's official web portal to all federal, state and local government web resources and services.